Precipitable_Water
0.55 0.54 0.52 0.51 0.49 0.48 0.46 0.43 0.40 0.38 0.37 0.35 0.33 0.31 0.29 0.28 0.27 0.29 0.31 0.30 0.31 0.33 0.33 0.35 0.37 0.43 0.28 0.14 0.11 0.26 0.25 0.31 0.30 0.29 0.26 0.24 0.23 0.24 0.20 0.22 0.23 0.22 0.25 0.27 0.29 0.29 0.29
0.53 0.51 0.49 0.47 0.46 0.44 0.43 0.40 0.38 0.36 0.35 0.32 0.31 0.29 0.28 0.26 0.28 0.31 0.30 0.29 0.29 0.31 0.34 0.34 0.39 0.47 0.27 0.07 0.17 0.26 0.25 0.26 0.26 0.25 0.25 0.26 0.24 0.27 0.23 0.23 0.23 0.25 0.25 0.25 0.26 0.26 0.26
0.48 0.47 0.46 0.44 0.43 0.42 0.41 0.37 0.35 0.34 0.33 0.31 0.30 0.29 0.27 0.27 0.31 0.31 0.28 0.25 0.27 0.31 0.35 0.32 0.39 0.44 0.25 0.10 0.20 0.27 0.28 0.26 0.27 0.24 0.22 0.27 0.29 0.26 0.26 0.22 0.26 0.25 0.21 0.23 0.22 0.23 0.23
0.46 0.45 0.43 0.42 0.41 0.40 0.38 0.36 0.34 0.33 0.32 0.31 0.30 0.29 0.28 0.32 0.38 0.36 0.27 0.28 0.27 0.35 0.30 0.33 0.40 0.41 0.12 0.27 0.32 0.28 0.30 0.24 0.26 0.27 0.28 0.30 0.31 0.28 0.26 0.26 0.25 0.22 0.22 0.17 0.21 0.23 0.24
0.45 0.44 0.43 0.42 0.41 0.39 0.38 0.36 0.35 0.34 0.33 0.33 0.32 0.32 0.34 0.40 0.40 0.34 0.28 0.33 0.41 0.40 0.39 0.42 0.37 0.33 0.12 0.36 0.27 0.35 0.32 0.23 0.22 0.24 0.27 0.30 0.30 0.24 0.25 0.22 0.20 0.21 0.16 0.17 0.19 0.24 0.23
0.44 0.44 0.42 0.41 0.41 0.39 0.38 0.37 0.37 0.36 0.36 0.36 0.35 0.34 0.37 0.40 0.39 0.33 0.28 0.42 0.46 0.46 0.50 0.54 0.49 0.26 0.25 0.22 0.34 0.36 0.40 0.29 0.22 0.22 0.21 0.23 0.23 0.20 0.21 0.20 0.13 0.16 0.19 0.20 0.20 0.24 0.23
0.46 0.45 0.44 0.43 0.41 0.41 0.40 0.39 0.38 0.38 0.37 0.36 0.35 0.33 0.34 0.35 0.38 0.36 0.25 0.26 0.18 0.17 0.21 0.15 0.18 0.18 0.20 0.27 0.35 0.31 0.36 0.27 0.26 0.20 0.15 0.20 0.16 0.15 0.18 0.22 0.27 0.26 0.23 0.22 0.25 0.26 0.22
0.42 0.44 0.46 0.45 0.44 0.42 0.42 0.41 0.40 0.38 0.39 0.37 0.36 0.35 0.32 0.32 0.39 0.36 0.31 0.23 0.29 0.33 0.14 0.23 0.27 0.34 0.38 0.40 0.18 0.16 0.32 0.21 0.20 0.15 0.19 0.17 0.15 0.21 0.24 0.25 0.26 0.26 0.24 0.24 0.26 0.27 0.23
0.42 0.45 0.45 0.45 0.46 0.45 0.42 0.42 0.42 0.40 0.38 0.36 0.36 0.34 0.32 0.31 0.36 0.31 0.28 0.31 0.43 0.44 0.17 0.20 0.34 0.33 0.34 0.39 0.26 0.23 0.26 0.30 0.22 0.18 0.17 0.14 0.19 0.27 0.27 0.28 0.27 0.25 0.25 0.25 0.24 0.25 0.24
0.44 0.44 0.46 0.46 0.44 0.44 0.43 0.42 0.41 0.40 0.39 0.36 0.34 0.34 0.34 0.31 0.27 0.31 0.24 0.40 0.45 0.48 0.10 0.16 0.27 0.34 0.32 0.34 0.23 0.30 0.35 0.29 0.25 0.18 0.19 0.18 0.23 0.23 0.25 0.28 0.34 0.25 0.32 0.31 0.28 0.24 0.19
0.43 0.43 0.44 0.44 0.43 0.41 0.41 0.41 0.40 0.39 0.38 0.36 0.34 0.33 0.37 0.36 0.29 0.26 0.34 0.43 0.49 0.41 0.05 0.19 0.28 0.40 0.30 0.30 0.30 0.24 0.35 0.33 0.23 0.22 0.23 0.17 0.20 0.21 0.24 0.29 0.40 0.33 0.36 0.32 0.29 0.26 0.25
0.42 0.42 0.42 0.42 0.42 0.41 0.39 0.38 0.38 0.38 0.37 0.35 0.35 0.34 0.40 0.37 0.35 0.36 0.41 0.43 0.40 0.09 0.04 0.16 0.23 0.21 0.20 0.28 0.24 0.33 0.28 0.36 0.33 0.25 0.28 0.26 0.33 0.35 0.37 0.37 0.37 0.40 0.34 0.34 0.33 0.29 0.18
0.40 0.41 0.41 0.40 0.40 0.41 0.40 0.38 0.38 0.37 0.36 0.35 0.34 0.36 0.39 0.43 0.28 0.43 0.41 0.25 0.07 0.06 0.17 0.15 0.16 0.17 0.21 0.23 0.22 0.30 0.27 0.27 0.23 0.19 0.23 0.27 0.28 0.36 0.38 0.40 0.36 0.34 0.31 0.23 0.24 0.22 0.17
0.41 0.40 0.40 0.41 0.41 0.40 0.39 0.37 0.37 0.37 0.36 0.36 0.38 0.43 0.43 0.44 0.47 0.44 0.29 0.11 0.05 0.14 0.15 0.21 0.19 0.18 0.21 0.22 0.21 0.26 0.27 0.24 0.30 0.29 0.26 0.22 0.20 0.30 0.41 0.41 0.38 0.38 0.40 0.33 0.20 0.18 0.21
0.41 0.40 0.39 0.38 0.40 0.39 0.38 0.36 0.35 0.36 0.36 0.36 0.41 0.41 0.40 0.46 0.47 0.40 0.18 0.07 0.11 0.15 0.22 0.20 0.18 0.14 0.17 0.20 0.22 0.28 0.29 0.32 0.38 0.37 0.27 0.26 0.26 0.41 0.43 0.48 0.48 0.36 0.36 0.45 0.34 0.30 0.25
0.42 0.41 0.39 0.40 0.40 0.40 0.38 0.37 0.36 0.37 0.36 0.36 0.32 0.35 0.38 0.50 0.46 0.31 0.15 0.14 0.19 0.25 0.25 0.22 0.15 0.18 0.13 0.12 0.14 0.25 0.29 0.43 0.44 0.49 0.49 0.35 0.27 0.39 0.46 0.49 0.50 0.46 0.50 0.40 0.33 0.21 0.22
0.44 0.42 0.41 0.42 0.42 0.41 0.40 0.39 0.38 0.38 0.36 0.35 0.31 0.25 0.43 0.51 0.43 0.24 0.13 0.17 0.22 0.28 0.29 0.22 0.19 0.19 0.20 0.21 0.24 0.24 0.31 0.46 0.54 0.52 0.52 0.45 0.35 0.36 0.42 0.42 0.43 0.46 0.40 0.41 0.40 0.34 0.25
0.46 0.44 0.43 0.43 0.42 0.42 0.40 0.39 0.39 0.40 0.37 0.32 0.25 0.16 0.38 0.46 0.20 0.24 0.18 0.24 0.29 0.26 0.29 0.26 0.26 0.26 0.23 0.25 0.25 0.26 0.34 0.44 0.61 0.57 0.45 0.50 0.41 0.34 0.39 0.51 0.53 0.47 0.45 0.46 0.36 0.37 0.38
0.47 0.45 0.44 0.43 0.40 0.39 0.40 0.40 0.40 0.40 0.41 0.32 0.20 0.24 0.43 0.43 0.16 0.18 0.25 0.26 0.29 0.26 0.27 0.26 0.26 0.30 0.33 0.25 0.20 0.29 0.33 0.49 0.60 0.54 0.52 0.54 0.40 0.32 0.35 0.45 0.48 0.42 0.46 0.49 0.49 0.44 0.36
0.49 0.47 0.45 0.44 0.42 0.40 0.40 0.41 0.42 0.41 0.41 0.35 0.22 0.15 0.27 0.35 0.30 0.22 0.19 0.21 0.22 0.33 0.31 0.30 0.32 0.31 0.29 0.27 0.30 0.21 0.27 0.47 0.60 0.55 0.63 0.63 0.49 0.40 0.31 0.37 0.43 0.41 0.50 0.53 0.50 0.35 0.35
0.52 0.49 0.47 0.45 0.42 0.42 0.42 0.43 0.44 0.41 0.41 0.33 0.23 0.20 0.26 0.17 0.21 0.23 0.22 0.23 0.21 0.19 0.26 0.30 0.28 0.28 0.28 0.24 0.23 0.28 0.32 0.45 0.53 0.59 0.60 0.58 0.41 0.46 0.45 0.49 0.48 0.46 0.47 0.50 0.43 0.41 0.36
0.52 0.50 0.48 0.45 0.43 0.43 0.41 0.43 0.44 0.42 0.40 0.29 0.20 0.20 0.25 0.20 0.21 0.18 0.18 0.21 0.20 0.22 0.24 0.23 0.24 0.28 0.29 0.25 0.26 0.23 0.26 0.31 0.41 0.50 0.50 0.57 0.43 0.46 0.44 0.49 0.45 0.43 0.44 0.44 0.41 0.40 0.41
0.53 0.50 0.48 0.45 0.42 0.42 0.42 0.41 0.44 0.44 0.40 0.29 0.35 0.36 0.26 0.21 0.20 0.17 0.19 0.21 0.22 0.26 0.25 0.29 0.29 0.26 0.23 0.28 0.34 0.32 0.33 0.37 0.42 0.44 0.46 0.49 0.47 0.42 0.35 0.43 0.41 0.33 0.37 0.38 0.37 0.40 0.41
0.51 0.51 0.48 0.45 0.43 0.42 0.42 0.40 0.43 0.44 0.42 0.36 0.35 0.31 0.22 0.14 0.18 0.18 0.21 0.22 0.21 0.25 0.23 0.26 0.32 0.28 0.28 0.35 0.35 0.36 0.39 0.42 0.44 0.46 0.53 0.49 0.49 0.46 0.35 0.36 0.24 0.35 0.43 0.39 0.34 0.36 0.40
0.49 0.48 0.48 0.46 0.44 0.42 0.40 0.39 0.38 0.43 0.45 0.38 0.38 0.30 0.24 0.15 0.18 0.17 0.19 0.20 0.22 0.23 0.22 0.25 0.33 0.34 0.38 0.33 0.25 0.28 0.34 0.41 0.42 0.46 0.51 0.61 0.51 0.41 0.32 0.29 0.33 0.35 0.37 0.35 0.32 0.27 0.33
0.47 0.46 0.48 0.47 0.44 0.42 0.40 0.39 0.36 0.40 0.44 0.39 0.36 0.39 0.31 0.19 0.14 0.22 0.19 0.21 0.18 0.20 0.22 0.25 0.33 0.38 0.39 0.31 0.30 0.29 0.27 0.37 0.38 0.43 0.60 0.59 0.58 0.43 0.35 0.27 0.23 0.33 0.34 0.35 0.32 0.19 0.29
0.47 0.48 0.48 0.46 0.45 0.41 0.39 0.38 0.36 0.36 0.41 0.40 0.35 0.41 0.32 0.21 0.22 0.23 0.19 0.19 0.26 0.25 0.21 0.22 0.28 0.27 0.36 0.27 0.27 0.32 0.35 0.46 0.37 0.37 0.41 0.44 0.44 0.36 0.34 0.29 0.32 0.42 0.41 0.36 0.24 0.20 0.32
0.51 0.48 0.47 0.47 0.45 0.41 0.39 0.37 0.37 0.33 0.38 0.40 0.33 0.41 0.32 0.23 0.22 0.24 0.26 0.24 0.25 0.24 0.19 0.23 0.23 0.29 0.28 0.26 0.28 0.32 0.34 0.42 0.45 0.42 0.39 0.38 0.36 0.32 0.34 0.29 0.27 0.45 0.35 0.29 0.32 0.34 0.30
0.49 0.49 0.48 0.47 0.45 0.43 0.40 0.38 0.37 0.34 0.35 0.40 0.29 0.40 0.44 0.30 0.24 0.33 0.32 0.34 0.33 0.32 0.29 0.30 0.28 0.30 0.33 0.30 0.33 0.36 0.34 0.40 0.42 0.34 0.44 0.35 0.39 0.36 0.37 0.36 0.47 0.48 0.41 0.42 0.36 0.32 0.30
Wind_Speed
9 8 7 7 7 7 8 8 9 10 11 12 13 15 16 17 18 19 20 20 20 20 20 20 20 19 17 16 18 17 18 19 18 17 17 16 15 14 13 13 13 13 13 13 11 11 12
8 8 8 8 8 8 8 9 10 11 12 14 15 16 18 19 20 21 22 22 22 22 22 20 19 18 16 18 17 17 18 19 18 17 17 16 17 16 14 14 14 14 12 12 13 13 13
8 8 8 9 9 9 10 10 12 13 14 15 17 18 19 21 22 23 24 24 24 23 22 20 19 18 18 19 17 19 19 18 19 18 18 18 16 15 15 14 14 13 13 14 15 14 14
8 8 8 9 9 10 11 12 13 14 15 16 18 19 20 22 23 25 26 26 24 22 20 19 19 18 19 20 21 21 21 20 19 19 18 18 16 16 16 14 15 14 15 16 17 14 15
7 7 8 8 9 10 11 12 13 15 16 17 19 21 22 23 24 26 27 24 20 19 18 18 18 18 19 18 16 18 18 18 19 19 19 18 18 17 17 15 16 17 18 18 18 17 15
7 7 8 9 10 11 12 13 14 15 17 19 20 22 22 23 25 26 25 19 18 18 17 18 18 17 16 18 19 21 19 20 19 19 19 18 19 19 19 16 19 19 20 19 18 18 17
8 8 8 9 10 12 13 13 15 16 18 19 21 22 23 24 24 24 22 18 18 18 17 18 20 20 24 25 24 20 21 21 19 19 19 20 20 21 22 23 20 19 19 19 18 18 17
9 9 10 11 11 12 13 14 15 17 18 19 21 23 24 25 23 22 20 16 16 18 19 19 19 19 21 21 21 22 21 20 20 21 20 22 23 24 21 23 24 21 20 20 19 17 17
10 11 10 11 12 13 13 15 16 17 19 20 22 24 25 25 20 21 19 17 19 17 18 17 17 17 19 17 18 20 21 20 21 21 21 23 23 19 22 24 24 27 22 20 19 15 16
10 10 11 12 13 14 14 16 17 18 19 21 22 23 24 23 17 20 18 21 19 16 14 17 16 16 20 21 20 22 18 21 23 23 23 25 24 25 27 27 23 26 21 20 17 14 15
11 11 11 12 13 14 15 16 17 19 20 21 22 23 23 19 18 18 20 21 17 16 12 20 17 18 23 19 23 19 23 21 24 24 21 25 24 24 25 27 25 24 17 15 14 12 12
12 12 12 12 13 14 15 16 17 19 20 21 22 22 21 18 18 20 22 18 16 13 15 17 18 21 24 22 23 25 23 23 22 23 25 27 24 20 20 18 18 16 12 11 11 12 12
11 11 12 12 13 14 15 17 18 19 20 20 21 20 18 18 18 21 21 15 14 10 17 17 19 24 24 25 23 23 24 23 20 19 21 21 20 19 16 13 10 11 11 11 10 10 13
12 12 13 14 14 15 16 17 17 18 19 20 20 17 17 17 19 20 17 13 10 15 15 19 22 24 19 22 22 26 23 21 20 18 18 16 18 14 15 13 14 12 11 11 12 9 9
12 12 13 13 14 14 15 16 17 18 19 20 18 16 16 18 19 18 13 11 11 14 17 21 22 18 18 22 23 22 21 17 18 17 15 12 13 11 8 13 13 10 12 11 9 10 8
12 13 13 13 13 14 15 16 17 18 19 19 16 16 16 19 19 16 11 10 12 15 18 18 18 18 21 23 23 22 17 16 15 10 11 12 8 8 11 11 8 13 11 10 9 7 8
13 13 13 13 13 14 15 16 17 18 19 18 15 15 16 19 17 13 11 12 14 17 18 17 18 20 20 21 21 19 16 15 11 11 7 8 9 10 8 9 12 12 12 8 8 7 7
14 14 14 14 14 14 15 16 17 18 19 16 15 14 18 18 14 13 13 14 16 17 17 17 18 20 20 22 20 17 15 14 10 10 10 10 8 9 12 11 11 10 9 9 9 8 9
16 15 15 15 15 16 16 17 18 18 18 17 15 16 17 16 14 14 15 15 16 17 17 18 18 18 21 20 18 16 15 13 10 10 9 9 10 8 9 10 13 12 15 13 11 9 11
18 17 16 16 16 16 17 17 18 18 18 16 16 16 17 16 13 14 16 17 17 18 17 19 17 19 21 18 17 17 16 12 12 15 13 12 11 11 11 8 8 10 11 12 14 11 9
19 18 17 17 17 17 17 18 18 19 19 17 16 16 16 17 17 17 18 18 18 18 19 20 18 20 21 18 18 12 14 14 13 10 10 11 13 13 15 14 11 9 10 13 15 18 11
21 19 18 18 18 18 18 18 19 19 19 17 16 16 17 18 19 18 19 19 19 20 20 20 20 23 22 19 18 20 18 17 16 13 10 12 13 11 14 16 13 12 10 12 16 11 14
21 20 19 18 18 18 18 18 19 19 18 17 17 17 17 18 18 18 18 20 20 22 21 21 23 23 22 19 21 24 23 23 24 18 13 12 11 10 11 12 11 10 12 11 11 11 12
22 21 19 19 18 17 18 18 18 18 18 17 18 17 17 18 19 20 21 23 23 23 23 24 23 20 22 26 25 20 19 21 22 22 19 13 10 10 9 6 5 10 7 8 10 9 12
23 21 20 19 18 18 18 18 19 19 19 18 18 18 18 19 20 23 22 23 24 25 23 23 20 23 23 20 13 10 8 10 15 19 19 20 11 10 8 8 9 9 6 6 5 7 10
23 22 21 20 19 19 19 19 19 19 19 19 19 19 19 20 20 21 22 24 24 23 22 20 21 19 15 13 9 8 8 6 8 8 15 19 18 13 8 7 6 5 4 4 3 5 4
24 22 21 20 19 19 19 19 19 20 19 19 20 20 21 21 23 23 23 23 23 20 19 19 16 15 12 8 8 8 7 7 7 8 11 14 13 14 11 10 7 6 7 5 3 5 3
25 23 21 20 19 19 19 19 20 20 20 20 21 21 21 22 25 27 26 23 22 21 18 18 14 10 9 5 7 6 6 5 7 9 11 12 13 13 10 9 8 2 3 3 5 3 2
25 23 21 20 19 19 19 19 20 20 20 20 21 22 23 23 25 27 27 26 24 22 18 15 14 12 10 8 8 8 7 5 5 8 8 9 13 12 13 11 9 5 4 4 4 4 3
Wind_Direction
227 235 245 255 266 275 282 289 295 299 303 305 307 308 308 308 308 306 304 302 300 299 296 295 296 298 293 287 276 281 283 287 287 287 287 284 285 284 283 287 290 292 287 294 289 293 291
234 241 250 259 268 277 285 291 296 300 303 306 308 309 309 309 308 307 304 301 298 296 293 291 293 296 292 287 283 282 285 284 286 285 285 279 279 279 284 288 287 288 289 285 289 290 289
239 246 255 263 271 279 286 291 296 300 303 306 308 309 309 309 308 307 304 301 297 294 291 287 287 291 289 282 285 285 282 280 282 282 281 279 277 279 279 283 281 283 289 289 286 286 290
246 253 261 269 276 282 288 293 297 301 304 306 308 309 310 310 309 308 305 300 296 293 290 286 287 288 285 287 288 286 280 280 279 280 278 280 275 274 277 274 287 286 287 285 282 279 282
251 261 269 275 281 286 290 296 300 302 306 308 310 310 312 312 310 311 308 301 295 293 291 288 289 288 287 289 291 291 288 280 280 279 277 276 274 273 274 278 286 283 280 277 285 271 281
258 266 276 283 287 291 294 297 301 304 306 309 310 311 312 312 313 314 311 299 298 293 295 290 290 291 290 287 290 292 294 279 279 278 281 275 275 272 272 273 271 271 276 276 274 274 274
261 274 281 285 290 294 297 299 302 305 308 310 312 312 313 312 314 318 314 299 299 294 301 290 292 287 286 286 288 284 291 284 276 277 272 276 273 268 261 259 276 274 273 273 278 275 275
265 276 281 288 293 296 299 301 304 306 309 311 313 313 313 313 308 315 323 305 301 293 295 294 290 291 292 295 292 284 287 283 275 271 274 279 275 269 271 268 271 275 272 273 279 275 267
268 273 283 291 290 295 299 303 305 307 310 312 314 314 314 313 304 312 314 315 304 297 293 291 291 296 305 298 295 295 285 283 280 272 271 269 272 275 270 268 265 261 264 269 272 275 271
270 277 280 288 295 294 298 301 304 308 310 311 313 316 318 316 305 311 309 312 306 297 298 298 297 299 309 301 293 298 292 282 277 276 274 276 277 272 270 266 256 262 257 261 259 263 266
270 278 283 290 292 296 300 302 305 308 311 312 313 315 317 319 309 311 308 310 303 299 298 299 297 297 307 307 300 295 299 289 277 274 277 276 283 279 277 267 251 259 248 254 257 259 271
269 276 281 288 294 297 300 304 306 308 311 312 313 315 315 314 312 312 312 306 302 304 287 302 303 308 310 308 305 300 300 290 285 276 276 275 275 274 272 275 250 232 235 249 257 260 266
269 276 281 289 296 298 301 304 307 309 312 313 314 314 314 314 312 315 314 303 305 301 303 310 306 308 306 312 308 310 304 295 288 285 281 279 269 266 265 262 243 229 226 252 262 264 256
269 275 281 287 293 298 301 305 308 310 313 314 315 315 315 316 317 318 315 309 317 296 303 305 308 306 307 320 311 312 311 306 292 283 276 269 270 260 254 236 230 227 230 226 241 248 265
270 277 283 288 293 299 303 306 310 312 314 314 312 312 318 321 322 320 315 321 295 304 306 308 311 310 309 314 315 315 309 301 301 283 258 259 259 252 245 226 223 235 231 225 240 263 269
268 276 283 289 293 298 304 308 312 313 314 313 309 308 314 321 323 324 320 310 304 306 310 310 315 312 312 310 311 315 305 310 306 301 268 245 241 247 237 227 223 230 237 233 248 251 266
267 275 282 287 292 298 303 308 312 315 316 311 309 307 312 320 320 323 318 310 308 309 312 308 309 308 307 311 311 305 294 298 314 287 265 241 232 241 242 238 235 239 237 239 232 232 243
265 272 280 285 291 296 301 307 311 315 317 313 307 307 313 318 318 318 318 312 311 313 316 313 310 313 310 311 303 298 293 290 301 298 262 250 237 232 233 239 228 231 217 221 231 247 250
263 269 276 282 289 293 299 304 309 312 316 307 304 303 311 315 311 317 312 312 308 313 315 316 317 318 315 306 299 287 286 276 278 291 258 240 244 239 254 247 246 242 240 240 245 250 248
260 266 272 279 287 292 296 301 305 308 311 305 302 302 305 310 310 310 313 308 312 313 305 313 305 312 315 310 300 286 282 268 276 283 258 239 230 228 232 244 229 238 258 226 223 242 251
257 262 268 275 283 290 294 298 302 305 307 302 303 299 300 301 303 306 304 304 310 313 307 309 306 314 312 301 299 285 281 276 260 266 258 241 235 237 257 252 246 248 240 222 226 241 240
254 259 265 271 280 285 292 294 299 302 302 301 298 299 299 298 299 302 302 305 308 305 302 304 304 306 302 292 286 285 282 265 257 258 270 258 235 243 256 248 248 246 244 232 236 243 257
252 256 261 268 277 282 289 292 296 300 299 297 298 297 296 297 299 300 298 301 302 305 299 300 303 301 298 291 288 279 270 256 244 254 259 253 240 237 241 239 250 251 241 234 244 250 242
249 252 258 265 273 280 287 292 293 297 298 295 295 295 296 296 296 297 299 299 299 300 295 295 299 299 296 297 289 273 260 244 238 237 237 244 236 222 218 216 231 234 246 233 238 256 239
245 249 255 262 269 277 284 291 292 293 294 293 292 293 294 295 296 295 296 297 298 296 291 290 292 298 301 296 279 261 244 231 231 233 229 213 206 207 207 222 252 259 239 228 233 275 238
242 247 253 259 266 274 282 288 292 291 291 290 291 292 293 297 296 294 298 297 297 296 294 289 293 298 297 285 251 228 230 240 232 225 206 200 211 201 206 213 213 222 246 266 261 282 249
239 246 249 256 264 271 280 286 290 291 288 289 290 290 292 295 295 293 293 296 294 294 292 291 295 291 292 281 234 224 227 229 226 199 189 190 191 198 209 209 231 243 259 264 243 242 288
237 242 247 254 262 270 278 285 288 291 286 288 289 291 291 294 294 290 290 287 288 288 283 285 290 276 272 243 213 214 222 235 227 202 190 188 190 198 204 205 224 231 282 237 233 252 270
234 238 245 252 261 269 277 283 287 291 287 288 291 293 292 292 292 293 288 283 280 275 275 271 263 270 239 222 210 211 228 229 228 196 197 190 190 194 196 207 218 245 268 267 242 233 226